GFSNGP_850_rhum_084.txt.gz
RH
75 81 75 73 91 82 86 73 77 57 58 54 58 56 54 54 60 67 70 69 68 70 68 68 69 67 66 68 69 72 78 81 85 94 98 98 99 98 98 99 98 98 98 98
74 72 75 86 87 84 77 75 63 49 50 44 42 43 44 46 47 51 59 61 62 66 66 66 69 68 67 69 71 77 81 84 88 89 92 91 90 90 92 92 91 91 90 89
84 70 71 96 90 86 77 76 57 58 46 48 44 42 40 38 37 38 42 44 49 56 63 66 68 69 68 71 76 79 82 84 82 87 92 92 88 86 90 89 86 86 85 84
86 68 89 61 52 62 64 59 52 49 47 47 44 46 47 45 40 45 44 42 46 56 66 69 71 72 72 74 77 79 81 83 84 93 95 89 91 90 88 85 86 84 86 87
83 81 64 57 54 65 63 64 52 56 63 61 61 62 64 61 60 58 54 52 49 57 66 69 70 73 75 80 82 80 81 84 91 94 92 88 86 87 86 89 88 92 89 86
87 76 70 73 59 56 59 83 54 57 67 65 62 78 77 62 65 67 64 60 61 67 68 68 73 77 78 81 85 83 81 86 96 96 93 90 88 83 87 95 94 93 88 88
84 86 75 67 54 62 77 70 60 58 62 63 71 70 65 65 66 68 67 66 66 65 64 69 74 76 78 81 83 84 79 81 91 94 93 93 90 86 94 95 91 89 85 78
77 81 75 55 61 74 70 64 60 60 61 61 60 63 67 66 64 66 65 65 64 65 68 73 77 80 82 80 81 86 80 76 85 92 95 93 91 93 92 90 86 81 63 27
72 71 53 54 57 54 53 54 55 59 61 64 64 63 71 82 75 74 71 80 74 73 74 75 78 82 82 82 80 84 82 75 84 95 97 94 90 89 89 87 76 49 26 19
65 54 53 62 64 64 60 56 58 61 63 64 64 66 68 72 80 81 76 74 75 74 73 74 76 80 84 83 78 81 84 86 92 92 92 92 92 90 87 78 41 24 20 16
69 70 71 72 70 70 69 69 68 68 67 68 68 70 71 71 73 77 76 78 76 76 74 74 75 76 76 76 77 83 90 91 90 90 93 91 92 90 72 35 28 22 18 16
74 63 64 71 71 73 69 70 71 71 72 72 72 74 75 76 77 79 78 78 78 77 75 75 75 75 74 74 77 84 89 89 87 96 97 100 92 66 36 35 28 21 18 16
64 66 67 72 72 71 71 72 73 75 75 74 75 75 75 77 80 81 81 81 80 80 76 78 77 74 72 76 84 90 90 86 94 98 100 97 68 37 34 31 25 20 18 15
65 66 77 77 77 79 78 77 75 74 78 77 77 79 80 80 80 81 82 84 84 83 78 79 76 72 77 91 94 94 90 91 97 99 99 83 40 34 35 33 26 20 18 16
74 74 75 77 80 77 73 72 72 73 74 76 78 77 76 74 76 81 86 88 86 85 82 80 77 73 85 90 94 96 97 99 99 99 86 50 32 33 35 34 28 22 19 17
79 79 80 82 86 88 84 76 72 73 76 79 80 80 80 80 78 77 82 88 89 84 84 82 80 77 82 85 89 95 99 100 98 94 83 45 30 30 34 35 32 24 21 19
84 88 89 88 89 88 88 90 88 87 83 81 80 81 82 83 80 81 82 85 90 92 92 91 86 85 81 86 83 84 89 91 89 90 81 46 28 26 27 32 34 33 27 22
89 90 91 91 93 92 92 93 94 93 95 98 91 89 86 82 80 80 82 87 88 93 95 96 95 90 90 88 88 88 92 92 90 87 86 51 28 26 26 27 28 32 34 27
89 90 92 94 96 97 98 99 100 100 99 98 100 99 97 88 79 82 92 93 92 92 93 98 99 99 94 92 92 93 95 100 100 99 95 84 42 29 27 26 26 26 33 35
99 98 99 99 100 100 100 100 99 98 98 98 99 99 100 99 88 85 91 99 100 100 100 100 100 99 100 97 97 96 95 98 100 100 100 99 81 43 31 29 27 27 27 34
87 90 92 96 98 98 97 91 93 97 98 98 98 98 99 100 99 98 90 91 96 97 96 96 100 100 100 100 100 100 100 100 100 100 100 99 100 87 46 35 32 31 28 28
34 31 30 33 41 48 35 36 47 72 86 95 98 98 98 98 98 100 100 100 99 96 94 94 96 98 100 100 100 100 100 100 100 100 100 100 99 100 91 58 51 51 35 29
27 24 23 25 31 29 28 28 32 36 44 56 71 89 96 98 97 98 98 99 98 98 98 99 99 99 100 100 100 100 100 99 99 99 99 99 99 99 99 99 97 97 76 56
26 24 23 23 25 26 25 27 30 34 37 37 35 40 65 80 94 98 98 97 97 97 97 98 98 99 99 98 99 99 99 99 99 99 99 99 99 99 99 99 99 99 98 97
25 27 21 22 22 24 26 29 33 35 37 37 39 40 42 52 62 63 71 85 97 98 98 98 97 98 98 98 98 98 98 98 98 98 98 99 99 99 99 99 98 98 99 99
39 28 25 23 25 28 32 34 35 38 38 38 41 41 42 42 41 41 42 44 49 61 82 97 98 97 98 98 98 98 98 98 98 97 97 98 98 98 99 98 99 98 97 98
46 34 25 26 30 34 36 36 38 39 41 41 41 43 43 43 43 43 42 40 39 40 42 51 69 90 97 97 97 97 98 98 98 98 97 97 98 98 98 98 98 98 98 98

GFSNGP_850_rhum_090.txt.gz
RH
82 80 64 66 84 96 98 74 75 61 70 52 50 56 68 64 69 73 74 74 70 68 67 66 64 64 63 63 63 62 62 63 63 62 64 70 69 80 89 96 98 99 98 99
82 80 78 82 82 85 85 76 71 59 59 46 48 56 64 64 70 76 74 71 70 69 68 66 64 64 64 65 65 65 64 66 67 68 73 80 86 94 97 98 98 98 97 96
95 81 85 94 91 88 81 72 65 73 54 44 49 55 57 58 62 67 67 68 67 66 65 66 66 64 65 66 66 66 68 69 70 74 78 83 85 88 88 90 93 94 94 93
88 73 94 58 57 76 74 73 65 50 46 47 46 46 47 50 53 61 63 63 63 64 60 62 67 64 66 68 68 69 72 72 74 77 80 84 82 83 87 90 92 93 91 87
91 87 62 60 68 85 81 78 65 65 50 56 55 55 57 48 49 49 45 42 42 43 48 58 64 65 68 69 71 71 74 76 80 81 82 87 87 89 92 94 94 90 89 88
86 76 63 81 60 61 53 81 53 56 60 72 68 66 65 61 58 59 60 59 57 55 55 51 62 68 69 71 74 75 77 80 82 90 91 92 92 92 95 95 95 91 90 91
86 85 69 61 62 63 74 61 57 55 65 70 68 61 64 66 66 65 66 68 67 63 60 59 67 70 71 74 75 79 81 83 84 90 99 99 95 93 94 92 96 96 95 92
81 77 70 58 63 63 60 68 62 63 63 64 64 68 72 74 75 72 65 67 69 70 71 73 74 74 73 76 79 80 83 84 85 92 97 99 97 95 94 97 99 98 96 87
73 73 59 61 63 64 62 63 68 65 65 64 66 66 72 73 74 81 83 73 67 69 72 72 73 82 82 80 80 81 85 88 88 88 95 98 98 96 95 97 98 97 91 75
69 60 66 75 74 67 59 60 62 65 67 69 69 68 70 73 76 81 89 94 88 76 76 84 76 75 79 82 84 87 88 90 94 88 91 100 100 100 96 93 94 92 80 44
74 66 74 74 73 73 70 68 65 65 66 67 68 69 72 74 76 77 77 96 90 90 86 81 78 77 78 80 85 89 91 95 92 90 94 100 100 99 95 94 89 82 60 24
72 62 63 70 76 74 71 71 71 71 72 73 73 75 76 76 77 78 80 82 88 78 78 79 77 75 76 78 82 88 91 96 88 90 95 100 100 98 96 96 85 64 36 26
65 71 68 73 78 76 73 74 74 74 75 76 76 76 78 80 81 81 82 82 81 85 83 80 80 77 77 77 79 82 84 87 91 99 96 99 98 95 90 88 82 49 28 22
73 75 77 77 78 79 78 78 77 75 74 75 77 79 79 78 77 77 79 83 84 84 85 86 89 81 80 79 77 78 80 82 86 96 99 100 96 95 93 89 79 35 26 22
78 75 73 78 85 85 84 79 75 73 73 73 75 78 79 78 77 78 78 76 79 85 87 88 85 88 82 80 78 76 78 81 86 94 98 99 98 100 100 91 61 37 34 26
82 80 80 85 88 87 85 82 80 78 80 81 80 77 76 78 78 80 80 79 79 80 86 90 90 87 86 83 79 81 89 93 95 94 94 95 100 100 100 91 47 38 35 28
85 85 87 87 88 89 88 89 90 89 88 86 85 82 80 75 74 80 79 80 79 80 83 86 90 94 91 93 86 82 90 94 94 93 90 93 98 99 98 86 47 35 33 33
86 90 91 91 91 89 89 90 89 87 88 88 90 90 89 86 75 72 79 79 79 79 82 84 87 95 96 95 94 90 86 95 100 97 98 99 99 100 97 84 55 36 31 32
82 85 87 89 90 90 92 94 92 92 91 91 92 93 95 98 97 95 92 85 79 77 82 92 97 98 98 99 99 96 94 100 99 99 100 100 99 98 98 95 81 51 32 29
94 93 95 96 96 97 98 97 95 90 88 90 93 95 96 98 98 99 100 100 97 91 92 95 99 98 96 100 100 100 100 100 100 100 100 100 100 100 100 100 99 83 60 36
77 64 62 55 58 57 47 31 30 39 48 56 64 73 88 97 98 98 98 99 100 100 100 100 100 100 99 100 100 100 100 100 100 100 100 100 100 100 100 100 100 100 100 89
30 27 24 25 28 26 24 23 25 28 29 32 32 33 40 55 74 94 99 98 98 98 98 99 100 100 100 100 100 100 100 100 100 100 100 100 100 100 99 99 99 99 100 100
34 28 28 27 27 25 23 22 25 28 30 32 31 31 34 36 41 56 55 63 68 79 93 98 98 98 98 98 99 99 99 99 99 99 99 99 99 99 99 99 99 99 99 99
48 34 33 30 27 25 25 28 31 33 34 35 35 35 37 37 42 43 44 43 42 40 39 42 56 82 96 97 98 98 98 98 98 98 98 98 98 99 99 99 99 99 99 99
97 47 33 29 27 24 26 31 33 34 37 39 41 44 47 44 42 40 40 41 41 39 37 36 35 36 38 46 77 95 97 97 97 97 97 98 97 97 97 98 98 98 98 98
97 65 39 34 27 27 30 30 33 35 35 36 40 41 43 43 44 45 44 43 42 42 43 42 41 39 39 39 39 44 60 87 96 97 97 97 97 97 97 97 97 97 97 97
97 93 46 31 27 30 31 32 35 39 38 37 38 41 41 43 45 47 48 48 48 49 49 49 50 49 48 46 45 44 44 46 59 83 97 97 97 97 97 97 97 97 97 97

GFSNGP_850_rhum_093.txt.gz
RH
78 77 73 72 85 80 78 62 61 51 60 50 46 50 59 64 75 77 72 68 64 62 62 62 60 59 60 60 60 60 59 58 59 59 60 61 64 66 70 76 80 86 87 93
91 82 77 73 76 78 65 67 66 57 57 49 49 57 64 64 68 72 71 67 67 68 67 64 63 61 60 62 62 63 62 60 61 63 63 64 68 76 84 92 99 99 98 97
96 86 89 90 87 87 81 76 70 79 59 46 44 50 57 63 64 61 62 64 66 66 64 64 63 62 61 63 64 65 65 65 65 66 66 68 73 80 86 88 90 91 94 92
90 94 98 60 63 75 74 72 65 56 47 44 44 44 47 52 55 58 63 64 65 66 67 68 69 68 66 64 66 68 68 70 71 72 73 75 77 78 80 83 89 90 91 92
88 86 65 62 76 88 80 80 70 59 52 50 50 56 57 50 50 52 58 61 59 55 57 65 67 67 66 65 67 69 69 71 72 74 77 82 82 78 81 86 92 94 95 91
82 78 66 82 65 65 64 81 58 65 63 67 65 62 58 59 54 53 51 53 57 56 55 53 51 66 69 67 68 69 73 76 78 79 83 87 92 87 89 93 96 95 93 92
85 84 71 59 64 65 73 63 67 58 59 69 66 54 60 64 65 64 64 64 65 64 62 60 61 62 71 70 69 74 75 78 80 82 87 94 97 96 96 97 97 97 95 95
80 74 72 59 65 62 66 70 65 65 65 64 64 69 71 69 72 75 77 71 66 70 68 65 66 71 74 73 76 76 80 79 82 86 87 94 100 100 98 98 99 100 100 97
74 73 60 62 67 72 66 68 72 67 67 65 68 71 73 73 73 77 77 82 82 69 74 75 77 78 78 78 83 84 80 81 86 88 92 94 100 100 99 98 100 100 98 96
71 62 63 75 76 68 66 68 70 70 70 70 69 70 71 73 74 76 82 86 90 87 70 70 72 80 90 87 83 85 84 85 89 94 96 92 96 100 100 100 98 98 99 92
76 67 71 73 76 74 68 70 68 68 69 70 71 73 75 76 75 76 77 78 94 94 92 94 93 91 89 86 80 83 87 90 91 98 99 98 93 100 100 100 100 99 97 84
74 64 65 70 79 76 74 73 73 73 74 74 75 76 77 78 80 80 81 81 84 88 81 80 86 87 84 83 78 81 88 92 96 100 100 96 96 100 99 100 100 99 90 70
66 76 70 78 80 77 74 74 74 74 76 76 77 78 79 81 82 83 84 85 84 82 83 85 81 83 80 78 82 79 82 90 96 100 100 100 98 100 99 100 99 97 81 51
75 80 80 79 78 79 79 79 79 76 74 73 73 74 77 78 79 78 77 78 81 84 85 86 85 90 91 81 79 79 79 83 88 91 99 100 100 100 100 99 97 90 78 45
82 80 76 77 83 84 84 82 78 76 75 76 76 73 71 71 73 76 79 80 79 80 83 86 88 86 88 87 81 80 79 78 79 83 88 100 100 100 100 100 98 94 85 47
82 82 83 85 87 88 87 85 82 81 81 80 80 81 78 75 71 73 77 78 77 78 82 83 85 93 90 88 86 84 81 82 85 87 91 99 100 100 99 98 99 97 83 43
86 87 87 87 87 87 87 87 87 89 90 87 83 79 79 78 79 79 80 80 78 78 81 82 81 86 94 93 91 92 87 88 97 98 98 97 100 98 98 99 99 99 86 42
87 87 90 93 94 94 93 92 90 89 91 89 91 91 90 89 86 86 85 79 82 81 81 83 83 85 88 95 94 95 96 93 96 100 100 100 98 97 99 100 100 97 83 48
86 88 89 90 91 92 96 97 97 98 98 97 96 96 96 96 95 95 96 96 96 92 88 89 89 89 98 99 98 99 99 99 98 100 100 100 100 99 99 99 99 98 93 74
99 99 98 97 95 96 97 89 70 60 56 60 68 79 84 90 94 96 97 97 99 100 100 98 99 100 100 100 100 100 100 100 100 100 100 100 100 100 100 100 99 99 99 98
88 74 62 47 48 39 29 26 29 31 30 32 34 33 37 50 67 88 96 97 98 97 98 98 98 99 100 100 100 100 100 100 100 100 100 100 100 100 99 100 100 100 99 99
37 32 29 31 30 26 24 24 24 26 28 30 30 31 32 32 41 65 69 73 62 67 81 94 97 98 99 99 100 100 100 100 100 99 99 99 99 100 100 100 99 99 99 99
43 34 33 33 34 29 25 24 25 28 31 32 33 34 37 37 35 36 33 38 36 36 37 38 39 51 73 92 98 99 99 99 99 99 99 99 99 99 100 100 100 100 100 99
78 43 43 34 33 29 27 28 32 32 33 34 35 36 39 39 43 42 43 42 41 40 39 38 38 37 37 36 39 55 84 96 98 98 98 98 98 98 98 98 99 98 98 98
97 98 97 65 35 29 29 32 32 34 38 39 39 41 43 42 40 39 40 42 44 44 43 43 44 42 42 41 40 39 40 44 57 80 94 96 96 97 97 97 98 98 98 97
97 98 97 76 33 29 31 32 32 34 36 36 39 39 42 43 44 45 46 48 48 50 51 50 48 48 48 47 46 46 46 46 45 45 49 62 84 96 97 97 97 97 97 97
98 97 97 88 36 29 31 31 33 36 36 35 35 38 39 41 46 51 51 50 50 49 49 49 49 49 49 49 49 49 50 50 50 50 50 50 53 62 80 95 100 99 98 97

GFSNGP_850_rhum_099.txt.gz
RH
41 54 52 51 49 52 72 52 77 40 39 35 38 40 46 53 54 56 58 60 61 62 63 69 72 73 66 54 51 50 49 51 51 52 52 52 54 55 56 57 58 59 62 65
65 37 41 51 50 40 44 44 40 37 38 35 39 44 46 50 54 55 58 59 62 66 65 66 69 64 55 53 52 53 54 55 56 57 57 58 58 57 57 58 59 61 66 72
94 86 66 77 54 44 38 32 35 40 32 35 36 35 41 46 50 52 56 60 64 65 66 66 66 63 57 56 57 59 60 60 61 61 61 62 61 60 59 58 61 68 72 75
94 78 89 55 50 47 41 34 27 34 40 37 38 40 42 50 50 54 59 62 66 67 70 66 60 60 60 59 59 60 61 61 63 64 65 66 64 63 63 66 66 70 76 76
88 65 54 54 54 59 61 48 33 33 32 34 41 43 45 50 54 55 60 64 68 70 71 73 68 65 63 60 59 59 60 61 63 65 66 67 66 68 70 73 74 74 80 83
61 64 57 60 54 56 53 71 49 45 39 36 38 42 43 58 61 62 60 62 64 60 54 62 75 68 64 64 63 63 63 65 66 67 69 71 72 73 75 77 80 78 81 89
66 60 59 52 59 58 77 73 59 55 49 41 44 48 58 63 62 64 63 62 62 62 63 61 59 59 58 68 70 71 69 67 68 72 75 78 78 76 79 83 86 86 88 92
53 56 69 52 60 72 67 56 59 58 51 47 60 65 69 71 72 75 74 72 70 70 70 66 67 68 67 69 69 71 74 72 73 75 76 80 82 82 82 88 92 94 93 95
60 61 50 59 64 75 69 66 68 63 60 65 70 72 73 73 75 75 74 73 73 78 80 74 71 72 73 73 75 77 78 76 76 77 81 86 88 88 91 94 96 99 100 99
58 51 51 64 70 72 76 74 76 74 72 67 68 72 79 78 77 75 74 75 75 79 86 84 71 76 76 78 79 78 78 80 86 89 87 87 89 93 96 99 97 99 99 99
48 51 53 68 76 75 82 78 78 70 72 78 78 81 81 79 75 76 76 74 73 78 85 90 90 78 75 80 86 90 92 93 93 90 90 97 99 99 100 100 99 99 100 100
71 61 56 63 80 79 80 78 75 76 74 74 78 76 79 77 77 78 79 80 80 80 81 81 81 88 94 95 92 92 88 86 89 96 97 90 94 99 100 100 100 100 100 99
58 64 74 78 84 83 84 79 76 77 78 77 77 78 78 79 77 77 77 77 78 82 82 82 82 82 84 86 87 90 87 81 88 92 97 94 96 99 99 99 100 100 99 100
80 83 74 81 77 83 84 81 81 80 78 78 76 75 75 75 74 70 68 68 71 77 78 80 81 83 84 84 88 93 91 85 82 84 83 86 94 100 100 100 100 100 100 100
84 90 88 85 85 84 84 84 84 83 79 78 76 74 72 71 69 67 66 66 67 71 80 80 83 84 83 84 86 86 90 88 84 85 84 85 96 98 99 99 99 100 100 100
92 92 88 90 92 90 91 89 87 86 85 84 84 83 82 82 80 76 75 73 73 73 75 77 80 81 82 84 88 89 90 89 88 88 92 99 94 100 100 99 99 99 99 100
96 90 94 93 94 92 89 90 91 90 90 90 86 81 77 77 80 80 79 80 82 81 80 79 78 80 84 83 83 84 86 93 93 94 92 98 99 100 100 100 99 99 98 99
97 100 99 97 96 98 96 94 95 93 90 87 87 87 88 89 90 90 90 91 94 95 94 94 90 87 87 89 89 88 88 93 97 96 97 98 98 100 100 100 99 99 98 99
95 95 95 93 93 95 96 96 95 94 93 91 85 80 78 79 83 89 93 96 100 100 99 100 98 97 96 95 96 97 99 97 100 100 99 100 100 100 100 100 100 99 99 99
94 96 99 100 100 100 100 100 95 70 44 37 38 40 41 39 42 50 66 90 95 92 94 94 96 96 96 97 98 99 99 100 100 100 100 100 100 100 100 100 100 100 100 99
98 98 98 98 98 88 68 37 33 33 29 27 27 27 27 27 28 37 54 92 73 44 37 38 45 59 72 87 94 98 98 99 100 100 100 100 99 99 99 99 99 99 100 100
100 98 80 49 50 53 39 31 28 27 27 27 27 31 32 33 33 37 37 38 37 35 35 34 33 33 34 34 32 43 79 96 99 99 99 99 99 99 99 99 99 99 99 99
100 100 97 38 39 46 40 33 27 28 30 31 36 35 36 36 37 39 43 39 37 37 36 36 35 35 37 35 34 34 33 34 39 57 77 91 97 98 98 98 98 98 98 97
100 100 98 85 71 79 97 42 29 32 33 36 35 35 34 34 38 38 38 37 37 38 40 41 43 43 42 42 42 42 41 39 39 39 38 36 37 38 41 50 67 86 94 100
97 100 99 97 97 97 96 39 35 36 38 39 34 34 35 39 41 40 40 41 44 46 46 47 46 45 45 45 46 46 47 47 47 47 46 46 45 44 44 45 45 47 48 50
98 97 97 97 97 97 96 63 40 39 40 39 37 38 38 41 41 42 46 50 50 48 47 46 48 49 51 53 54 54 52 51 50 49 49 48 48 47 46 47 47 48 49 50
98 97 96 96 96 96 96 82 46 48 38 39 39 38 41 42 44 51 53 52 50 51 53 56 58 59 58 57 55 54 53 52 52 51 50 50 50 51 52 53 54 54 54 54